Location: ??
(35.5052°N, 139.7262°E)
Time: 03:44:34
(UTC+00:00)

Cosmos 2084 Rocket - Pass Details

Date: 20 June 2021
Orbit: 518 x 662 km, 62.8° (Epoch: 26 July)

Event Time Altitude Azimuth Distance (km) Brightness Sun altitude
Exits shadow 18:20:43 16° 250° (WSW) 1,399 4.8 -11.7°
Maximum altitude 18:23:16 33° 308° (NW) 893 4.3 -11.3°
Drops below altitude 10° 18:26:51 10° 13° (NNE) 1,767 6.7 -10.8°
Sets 18:29:14 0° 23° (NNE) 2,674 8.0 -10.4°
